Location: Drocourt
(49.0571°N, 1.7669°E)
Time: 07:38:33
(UTC+00:00)

SR - Pass Details

Date: 28 April 2024
Orbit: 579 x 859 km, 66.7° (Epoch: 26 May)

Event Time Altitude Azimuth Distance (km) Brightness Sun altitude
Exits shadow 01:23:30 22° 278° (W) 1,604 ? -23.4°
Maximum altitude 01:25:44 31° 319° (NW) 1,289 ? -23.3°
Drops below altitude 10° 01:30:07 10° 21° (NNE) 2,162 ? -22.9°
Sets 01:32:37 0° 33° (NNE) 3,033 ? -22.8°
